Theta_e
339 339 341 340 338 338 339 338 340 339 342 343 344 344 338 341 334 331 330 333 333 338 338 337 351 346 350 351 354 353 357 355 356 357 362 361 362 352 354 357 356 354 354 354 353 354 356 358 360 366 370 371 372 373 372 373 373 373 372 372 373 372 372 369 365 362 361 361 362 358 355 352 356 357
337 337 339 340 336 335 338 339 339 337 338 340 344 341 340 343 338 336 330 331 336 336 339 339 344 349 342 348 355 353 356 356 352 353 361 360 361 350 351 358 356 356 356 356 356 356 357 356 357 357 357 361 368 371 372 373 373 373 373 373 373 372 370 366 359 357 356 356 355 355 355 355 359 360
336 335 335 337 333 334 336 337 338 337 339 339 338 336 339 340 339 337 335 329 336 338 337 337 340 340 342 343 346 349 358 357 353 354 360 361 359 356 358 358 358 356 354 354 355 357 356 356 356 356 357 358 360 363 369 371 372 373 373 373 372 371 366 358 354 353 353 354 353 355 355 356 362 362
334 333 332 334 335 334 336 335 335 335 335 337 337 337 338 338 339 339 335 332 332 338 339 339 339 345 346 345 343 347 353 351 360 356 358 361 357 355 353 353 353 353 355 355 352 353 353 353 353 354 354 356 358 359 363 367 370 372 371 370 369 365 355 350 349 349 349 353 355 355 355 357 361 360
336 336 335 334 335 336 335 333 334 333 334 335 337 338 337 336 338 337 335 331 332 337 340 339 339 340 341 342 344 341 347 350 353 355 356 359 360 359 355 359 350 352 353 351 349 349 351 353 353 352 353 355 357 357 361 364 365 366 366 359 350 348 347 348 349 350 353 354 355 357 357 357 358 356
335 334 334 333 333 336 335 334 332 333 333 333 334 334 335 334 335 338 335 333 332 331 337 338 340 339 341 339 341 342 342 351 359 356 354 354 357 352 357 359 353 350 350 349 347 346 347 349 351 352 352 355 357 357 358 359 360 362 357 348 347 346 345 346 348 351 354 355 356 356 355 355 355 355
334 332 332 331 332 334 334 333 333 333 333 333 333 333 334 334 335 336 338 335 331 331 334 338 337 339 342 340 340 342 343 350 351 350 347 345 350 351 351 352 350 346 349 348 348 347 346 346 348 351 352 354 356 357 357 355 352 348 343 342 342 342 344 345 346 349 353 354 354 354 353 353 354 353
333 333 332 330 333 334 333 332 332 332 333 334 334 334 335 336 336 337 338 338 335 334 332 336 336 338 338 339 341 344 344 343 344 345 347 348 349 348 348 349 348 347 348 346 345 344 343 343 342 341 342 342 343 341 338 338 338 337 338 339 339 340 342 342 343 345 347 349 351 352 352 351 350 349
334 334 332 333 334 335 332 331 330 332 333 333 334 334 335 336 338 338 338 338 339 336 333 334 339 340 342 344 343 344 343 345 346 350 347 345 344 345 348 348 344 344 344 343 342 341 341 340 339 339 338 337 337 336 335 335 335 335 336 337 337 337 337 338 339 339 341 341 343 344 344 343 342 341
334 333 335 334 335 335 332 331 332 333 333 334 334 335 336 337 339 338 338 339 338 337 336 335 336 341 339 339 343 343 345 342 341 343 344 345 345 347 346 343 346 345 345 345 343 341 340 338 337 338 337 337 336 337 337 337 336 334 331 331 333 334 334 334 334 334 335 335 336 336 336 336 337 339
334 334 332 334 335 335 335 334 333 333 334 334 336 337 336 337 338 338 337 338 337 337 337 337 337 335 339 339 338 341 344 343 345 340 339 338 343 345 343 343 345 346 346 345 346 345 344 343 340 334 336 336 336 336 336 337 338 336 332 330 332 332 333 333 332 332 332 330 328 327 327 330 334 336
335 334 335 335 335 335 337 337 336 337 335 336 336 337 338 337 336 335 337 337 336 336 335 335 333 333 335 336 339 341 342 338 340 340 338 334 337 339 342 342 342 344 345 343 342 343 344 344 343 339 338 337 336 336 336 336 336 336 333 331 331 331 331 331 330 330 329 329 328 326 323 322 326 332
335 333 333 334 335 337 338 340 341 342 341 337 335 337 338 338 337 337 336 336 336 335 335 334 335 336 335 336 336 336 335 334 333 339 339 339 339 339 339 339 341 342 341 341 341 341 342 338 337 336 333 333 333 332 333 333 333 333 332 330 329 329 329 328 328 328 328 328 328 327 325 322 322 326
335 336 334 336 337 338 338 340 343 344 343 342 340 339 338 337 336 336 336 335 335 334 333 332 333 332 332 333 335 335 336 339 340 336 337 336 337 338 337 338 339 344 341 338 336 339 340 335 332 331 328 330 330 329 329 329 329 329 328 327 327 327 327 327 326 326 325 325 325 325 325 324 323 323
334 335 338 339 338 338 338 337 341 343 344 343 341 342 343 343 338 336 335 335 337 335 333 331 332 332 332 333 335 336 337 339 338 337 338 337 337 335 333 330 335 342 343 337 334 334 337 335 329 329 328 328 328 328 327 328 328 327 326 326 326 326 326 326 325 325 324 324 323 323 322 322 322 321
335 336 335 336 337 336 336 334 334 339 343 343 342 342 342 343 344 343 338 336 335 334 332 330 330 331 331 333 335 335 336 336 338 339 339 337 336 334 333 333 331 338 344 335 331 331 334 334 330 329 329 329 328 327 327 326 326 326 326 326 325 325 325 324 325 325 324 323 323 322 321 321 320 320
337 336 335 333 334 333 337 335 333 336 337 342 343 342 342 342 341 338 341 342 340 337 333 331 330 330 331 331 332 335 336 338 336 337 335 336 336 335 333 333 335 338 342 337 332 329 332 332 329 327 330 329 327 326 327 326 326 325 324 324 324 324 324 324 324 323 323 321 320 319 319 319 318 318
332 333 332 332 332 333 333 333 333 335 338 339 340 341 340 338 338 338 339 339 339 339 336 333 330 332 333 331 333 336 340 338 336 336 335 338 335 334 333 336 338 340 345 334 331 329 331 330 327 324 325 326 324 322 320 322 323 323 323 323 323 323 323 323 323 322 321 320 319 318 317 317 317 316
329 331 332 333 332 332 332 333 333 335 339 341 341 340 339 338 337 336 335 336 337 338 337 335 333 333 334 334 334 335 338 341 341 339 338 338 338 337 339 337 339 338 343 343 334 327 331 333 328 326 326 325 323 322 319 320 321 322 322 322 321 321 321 321 321 321 320 319 318 317 316 316 316 315
330 330 332 333 332 332 332 333 331 337 344 339 337 336 337 338 338 338 339 335 338 338 338 338 336 333 334 334 336 336 334 337 343 346 344 341 338 338 333 331 335 335 340 342 335 330 331 334 331 329 329 327 323 322 320 320 320 320 320 321 320 320 320 320 319 319 319 318 318 316 315 314 314 314
331 331 332 332 332 331 331 329 326 332 338 337 336 335 335 336 336 338 340 341 339 338 335 334 332 334 333 333 330 329 330 334 339 340 336 335 339 335 330 330 331 332 336 338 340 334 330 334 333 331 334 335 330 326 322 319 319 318 319 318 318 318 319 319 319 319 318 318 318 318 316 315 315 316
332 331 333 332 330 330 330 326 325 329 339 336 335 334 334 332 332 332 336 338 342 339 336 335 335 334 336 338 336 334 333 333 338 335 332 335 338 332 332 330 331 332 333 335 341 336 331 334 334 332 334 335 335 332 325 320 318 319 317 317 318 317 317 317 317 318 319 319 319 318 319 318 317 324
333 331 331 332 330 329 328 322 323 326 338 336 335 334 334 332 331 332 335 336 335 337 336 336 338 338 338 337 336 338 339 338 339 336 336 336 335 333 332 333 333 329 331 337 344 333 333 334 334 335 329 326 332 337 333 327 327 324 321 321 319 319 318 317 316 316 316 317 317 317 317 316 315 327
328 330 330 330 330 322 321 319 319 321 326 336 336 336 333 332 330 335 333 334 334 335 337 334 334 334 334 333 333 332 332 335 337 335 336 336 336 334 333 333 331 328 330 336 342 335 334 336 334 337 336 327 323 330 332 332 335 332 329 325 321 319 321 319 316 315 315 314 314 314 314 314 314 328
326 327 328 329 331 321 320 318 316 317 322 334 336 334 332 331 332 338 332 332 335 331 333 334 333 331 330 330 329 328 327 328 331 334 335 336 336 335 334 332 332 331 333 338 342 339 333 337 333 335 331 329 328 325 327 327 327 329 333 331 328 323 325 328 322 319 313 313 313 313 313 315 318 328
327 329 331 332 332 321 319 316 314 315 320 332 336 333 320 321 327 334 336 333 330 329 329 329 329 329 328 327 328 328 328 328 329 329 332 334 336 337 337 335 332 331 333 341 340 340 337 334 335 332 332 329 328 327 324 325 328 330 330 329 328 327 329 329 331 329 325 320 318 316 316 316 317 317
331 333 332 332 330 321 312 311 313 316 323 333 328 317 319 325 328 337 338 338 332 330 328 328 328 329 328 328 328 330 330 331 333 331 330 330 332 334 335 338 338 338 340 342 343 344 340 337 339 334 330 331 327 325 323 320 322 327 324 325 326 327 329 325 324 326 328 323 320 315 316 316 317 318
333 335 332 335 317 311 308 309 314 319 330 330 319 318 322 331 338 341 339 338 335 333 330 329 328 326 328 330 331 333 334 335 335 333 332 331 330 330 331 333 334 336 337 338 339 341 341 338 337 338 337 332 325 322 319 324 325 324 321 326 327 327 326 327 326 326 326 328 330 330 329 323 323 321
338 326 315 314 314 315 314 314 316 326 330 323 322 326 333 335 336 337 335 336 337 334 330 328 328 328 330 330 332 335 338 341 342 338 335 335 334 333 332 331 332 333 335 337 337 335 333 330 328 329 329 328 324 324 324 321 322 320 323 323 321 326 328 330 328 325 326 324 323 324 323 324 325 329
324 319 318 317 317 322 326 338 340 341 345 331 335 336 335 333 333 333 334 334 334 331 329 330 329 330 333 335 337 339 338 334 332 337 338 331 328 328 327 325 327 331 333 334 336 336 335 334 331 327 324 324 323 320 322 320 318 323 327 322 320 325 327 327 327 330 329 327 327 324 325 326 324 322
333 334 337 333 328 325 329 332 333 332 338 337 340 337 336 335 335 334 332 333 332 331 333 332 333 334 332 333 331 330 332 331 332 333 334 335 331 327 325 324 324 326 331 334 334 336 337 335 334 334 326 325 327 328 327 326 323 322 321 322 321 319 326 328 327 326 327 331 332 333 326 324 326 332
338 339 337 335 331 332 335 336 339 341 333 332 333 338 340 339 334 331 331 334 336 337 336 335 338 337 339 331 329 329 331 332 332 334 334 334 333 334 335 331 327 328 329 331 333 336 338 335 335 335 334 333 328 326 325 326 325 325 326 327 325 325 325 323 324 324 328 328 329 332 331 329 324 326
340 339 339 338 337 337 336 336 334 331 335 332 330 331 331 331 333 334 333 330 333 335 335 329 329 331 329 329 335 334 331 335 333 335 332 329 338 338 334 327 328 327 328 331 333 331 334 334 334 334 333 330 328 330 329 321 321 325 323 323 328 325 329 328 326 329 329 327 326 326 326 328 331 328
338 336 337 337 338 335 337 332 333 336 335 332 330 330 329 329 331 328 329 335 335 336 333 334 330 328 329 330 328 326 330 335 335 334 332 332 330 328 326 323 324 328 329 327 331 330 333 332 326 325 329 327 324 322 325 323 317 320 321 320 322 320 321 323 325 328 332 325 321 323 324 326 328 328
336 336 328 334 338 338 332 331 336 336 332 332 330 325 327 331 333 331 329 328 333 334 334 333 332 333 330 327 330 325 326 325 329 330 327 335 331 324 327 328 326 326 325 327 325 328 336 333 333 327 328 332 327 323 317 325 317 317 321 320 320 319 317 320 320 319 322 325 331 323 320 321 329 329
332 332 337 332 334 337 333 334 333 334 334 333 331 329 325 327 332 331 331 332 331 326 330 330 331 330 330 331 329 327 326 326 325 328 329 327 328 335 329 332 330 326 326 323 322 323 323 323 326 325 324 321 318 316 315 319 320 325 320 317 321 318 317 318 319 321 323 322 324 320 317 317 320 327
330 337 337 337 334 335 333 335 337 332 335 335 330 331 330 328 334 334 336 333 338 331 329 328 325 332 328 328 330 327 325 323 322 323 322 324 325 325 328 324 328 328 322 324 323 321 321 320 319 318 317 319 321 317 318 324 318 320 325 321 319 320 317 317 316 313 316 320 315 314 313 316 321 320
332 335 335 333 336 335 338 336 335 333 332 337 334 333 330 329 332 340 336 332 329 330 329 330 330 326 328 328 328 327 324 321 319 321 320 321 322 322 322 324 321 324 325 322 322 321 321 320 319 318 318 316 315 314 317 325 323 323 313 328 320 318 320 316 312 311 313 315 313 314 316 317 319 319
330 336 330 333 338 339 335 337 338 333 334 341 337 334 332 330 330 331 330 334 332 335 332 333 331 330 325 327 326 326 326 324 318 318 320 321 321 322 322 321 322 324 323 322 320 320 322 321 321 320 321 320 318 318 318 320 323 321 320 310 322 320 320 317 315 314 315 313 313 316 319 319 319 316
335 342 340 335 336 339 337 336 340 341 337 332 331 330 329 327 331 331 333 339 339 342 331 329 335 332 331 327 326 322 323 321 324 324 319 321 322 321 321 327 320 325 320 320 319 321 322 321 324 322 322 325 325 325 322 322 325 326 322 321 310 322 319 321 318 317 316 317 318 315 313 314 311 314
336 334 339 343 339 338 338 340 338 339 327 328 330 330 334 334 331 328 334 333 332 339 332 332 331 330 330 332 325 323 324 323 321 320 325 322 320 321 321 327 326 324 322 320 323 323 322 324 328 329 331 325 325 329 323 316 318 320 319 317 313 312 313 318 322 321 320 321 318 315 313 312 310 312
335 339 337 338 337 336 339 335 338 332 329 328 329 332 332 334 336 323 330 331 335 332 338 335 336 332 328 329 330 324 324 328 327 325 323 323 327 323 323 325 324 325 325 321 323 325 328 330 331 328 327 327 322 318 314 316 316 316 321 321 319 314 312 311 311 317 325 318 316 315 314 314 312 311
335 337 336 335 341 335 335 339 339 343 334 337 334 330 327 326 330 326 329 331 336 337 332 334 334 335 336 332 329 329 328 326 329 327 325 326 324 326 324 326 325 323 324 328 327 327 333 329 329 327 324 325 324 323 317 318 320 318 317 320 319 323 317 312 310 309 308 308 311 318 319 315 313 307
334 334 333 335 333 339 339 338 336 340 344 333 337 338 330 336 328 336 339 338 338 332 334 332 338 337 335 336 329 326 327 330 331 332 328 325 323 323 322 327 329 325 326 327 328 328 328 330 328 331 323 322 323 323 319 319 316 320 321 320 321 319 320 323 314 308 307 308 308 309 311 314 315 313
329 333 335 330 332 329 332 334 337 337 338 337 330 329 329 332 330 327 330 332 332 328 330 331 331 332 331 330 334 324 330 327 332 330 331 330 328 322 322 321 322 326 326 330 329 328 332 328 327 330 325 324 324 326 321 319 319 320 319 319 317 318 320 318 318 316 316 319 312 309 310 311 312 313
Wind_Speed
7 7 9 7 7 6 7 7 6 7 6 5 5 4 5 4 5 6 6 5 7 6 7 4 1 2 5 1 1 1 1 3 4 2 0 2 2 5 3 4 4 2 2 2 2 1 2 3 4 4 6 10 11 13 14 15 15 16 15 15 15 14 14 12 10 9 9 7 8 5 5 3 5 3
8 9 7 7 7 10 9 7 7 7 8 7 6 5 5 5 4 2 5 6 6 6 8 8 4 4 4 5 1 2 1 2 5 3 1 1 1 5 2 1 0 2 3 3 1 1 2 2 2 2 2 3 5 8 10 12 14 14 14 14 15 14 13 10 12 12 11 11 12 13 13 10 8 7
7 9 8 8 9 9 8 7 7 8 5 8 8 8 7 8 6 6 5 5 4 6 5 6 8 8 8 4 0 1 2 3 4 3 1 1 2 1 1 3 5 6 7 6 1 2 3 2 2 1 1 2 1 3 6 9 11 12 13 13 14 16 10 14 15 15 12 10 10 12 12 14 13 11
8 8 9 8 7 7 6 7 7 7 8 7 8 8 7 6 5 5 6 5 6 6 6 4 5 2 5 4 3 2 2 2 2 3 2 1 5 2 2 6 10 10 8 5 4 3 2 1 0 1 1 2 2 1 3 4 6 8 11 11 10 6 9 16 20 18 9 9 12 13 11 7 7 4
6 6 5 6 6 6 6 7 7 8 9 8 6 6 5 6 5 6 6 7 6 5 5 5 5 6 5 2 5 1 2 0 3 5 3 2 2 1 2 2 6 6 10 9 6 5 4 2 1 3 3 4 5 4 4 4 4 4 3 9 23 25 23 19 16 14 14 14 14 14 13 10 6 4
5 5 5 6 6 5 7 7 8 8 9 8 7 7 7 7 7 6 6 5 5 6 6 5 5 5 6 4 5 5 4 2 1 2 2 3 2 2 2 3 4 8 8 8 6 1 4 3 4 4 4 3 4 5 5 5 6 5 12 23 22 19 18 17 17 16 16 17 15 11 10 9 8 7
5 6 6 7 7 6 7 8 7 8 9 8 9 9 7 7 7 6 4 4 5 6 6 6 6 6 6 5 6 7 4 3 3 3 3 3 3 3 4 3 5 7 7 6 5 5 7 6 7 7 8 7 6 5 4 3 4 11 16 16 15 16 16 17 16 12 8 9 10 10 11 11 9 7
4 5 5 7 8 8 7 7 7 8 8 8 7 8 7 6 7 6 5 4 4 4 6 6 6 4 6 6 6 6 6 7 6 4 4 5 5 10 9 7 4 7 11 10 9 8 8 9 10 12 12 12 11 9 7 6 10 12 13 14 14 15 15 13 15 16 14 12 11 11 11 11 9 8
4 5 5 7 8 8 8 8 8 8 9 7 7 7 6 6 4 6 5 5 3 4 4 5 4 4 2 3 4 5 5 4 4 2 4 6 7 6 5 6 9 10 10 9 10 10 10 11 13 13 14 14 14 13 12 11 8 7 10 13 14 13 14 15 16 15 14 15 14 13 11 9 7 5
5 4 6 7 7 7 7 8 6 5 6 6 6 7 6 6 5 5 6 6 4 3 3 3 4 3 5 5 3 5 4 4 5 4 4 7 6 4 6 6 3 4 4 3 2 8 8 12 16 15 15 15 15 15 14 13 12 11 9 7 4 2 6 11 12 12 12 11 9 6 6 6 4 3
5 5 7 7 6 6 6 6 5 4 5 6 7 8 7 6 6 6 5 6 6 4 4 4 5 5 5 5 5 6 6 3 3 4 6 5 1 5 5 4 4 4 4 10 13 12 10 12 11 16 18 18 16 15 16 14 13 12 10 8 7 6 7 5 2 3 6 8 8 8 7 6 4 3
4 5 5 5 5 6 5 4 4 6 6 7 8 8 7 8 8 8 8 7 6 6 6 6 6 5 4 5 5 5 7 7 6 7 5 2 4 5 6 6 3 3 3 4 6 6 5 8 12 14 15 17 18 18 13 18 16 15 13 12 11 10 9 9 8 7 6 6 6 7 7 6 6 5
5 6 6 6 5 6 9 12 12 13 11 6 7 8 8 8 8 8 8 7 6 7 7 7 5 5 6 7 7 7 8 7 5 4 4 3 4 4 5 6 7 5 4 5 5 5 6 9 9 8 9 11 14 14 15 12 15 16 14 14 14 13 13 13 12 12 11 10 9 8 7 7 6 6
5 5 6 5 11 12 11 11 14 14 14 13 9 7 7 8 7 7 7 7 7 7 8 8 8 8 8 8 8 7 7 4 4 6 5 5 3 3 5 6 6 4 5 7 8 8 8 8 8 8 9 9 10 8 8 10 11 14 15 15 15 15 15 14 14 13 12 11 11 11 10 10 10 10
5 5 4 3 7 9 11 9 14 13 13 13 13 16 17 15 10 7 8 9 10 9 9 8 8 8 9 9 8 8 7 6 6 4 4 4 4 4 4 5 4 7 4 7 8 8 8 7 8 8 9 9 8 9 9 14 16 16 16 15 14 14 13 13 13 13 13 13 13 13 13 13 14 13
3 4 5 5 5 6 10 9 8 9 12 13 12 14 15 17 18 15 10 8 8 9 8 9 9 8 8 8 8 8 8 7 7 5 5 5 6 6 6 5 5 3 3 8 9 8 7 6 8 9 8 8 9 10 11 13 15 15 15 15 15 15 14 15 14 13 14 13 14 14 14 15 15 14
6 6 6 6 5 7 13 9 8 6 7 10 12 13 14 16 16 13 14 15 10 6 7 7 8 8 7 8 8 9 8 6 6 5 6 5 6 6 7 5 4 3 3 7 9 8 5 5 8 10 7 6 5 6 10 13 14 15 15 15 14 14 14 14 14 14 14 14 14 15 15 15 15 15
6 6 6 6 6 6 7 6 7 6 5 5 4 4 6 6 10 12 13 13 15 10 6 6 7 6 7 8 8 8 6 6 5 6 6 5 7 8 7 4 4 3 4 7 7 8 5 5 7 9 6 6 6 6 7 9 12 14 14 15 15 15 15 14 14 14 13 14 14 14 15 15 15 15
7 6 6 6 7 7 6 7 9 6 5 4 2 5 6 6 5 5 5 6 5 5 5 6 6 6 7 8 9 8 7 6 3 6 4 3 4 4 6 6 4 5 4 2 3 6 4 3 7 7 5 5 5 4 7 10 10 10 10 13 14 14 14 13 13 13 13 13 12 13 13 13 14 14
6 6 7 7 7 6 6 11 13 10 5 5 6 5 4 5 5 4 2 2 3 2 3 3 4 5 6 10 10 10 9 8 5 3 3 4 4 5 7 6 5 7 7 6 4 5 4 4 6 5 4 4 4 4 5 8 8 9 11 12 12 12 12 12 12 11 11 10 10 11 12 13 13 13
7 8 8 7 6 6 6 11 13 13 10 6 6 6 7 6 4 3 1 4 5 3 3 2 1 3 0 10 14 14 16 12 8 5 8 8 5 5 6 5 6 6 5 6 5 4 5 4 5 5 4 4 4 4 4 3 6 8 8 9 10 9 9 9 10 10 10 10 10 8 11 13 13 12
6 10 16 10 6 6 6 10 12 12 9 8 8 7 6 6 6 6 6 3 1 4 6 5 5 6 3 9 11 13 14 14 11 9 9 6 3 5 5 6 6 6 6 4 4 2 5 4 4 5 2 3 3 5 4 3 3 5 7 8 8 9 8 8 7 6 6 6 6 5 5 1 2 2
5 6 9 13 9 7 8 11 12 12 8 6 5 5 5 5 6 6 4 4 4 4 5 6 7 6 10 7 7 8 13 14 12 9 8 7 7 6 5 3 3 5 5 5 4 3 2 3 2 1 2 3 2 1 6 4 3 4 3 4 4 6 10 8 7 6 4 2 1 3 3 6 3 1
5 5 5 7 9 10 10 11 11 12 10 6 5 5 5 5 6 7 5 7 7 6 6 7 7 7 7 6 6 7 8 9 9 9 8 8 7 7 6 7 7 6 4 4 4 4 2 1 1 2 0 3 2 3 4 3 4 3 3 3 3 1 2 8 7 8 7 4 2 1 4 7 9 3
5 5 5 4 7 9 10 10 10 9 10 8 4 4 4 3 5 6 4 7 11 7 7 6 5 6 5 6 6 7 8 8 7 7 7 8 7 7 7 6 6 6 6 4 4 2 3 0 2 2 4 3 3 4 3 5 4 4 3 3 4 4 4 3 4 4 6 6 3 5 11 13 9 6
4 4 4 3 4 8 9 10 10 10 7 7 4 5 6 7 7 4 3 5 5 6 6 6 6 6 6 6 6 6 6 6 7 7 6 6 6 6 6 6 6 6 6 5 5 3 3 3 2 3 3 3 3 4 3 3 3 3 3 4 5 4 3 2 2 4 3 4 4 4 10 15 15 13
3 2 2 3 6 8 9 9 9 8 8 6 5 8 8 6 2 3 3 3 5 5 5 6 7 6 5 5 5 5 5 5 4 5 5 6 6 6 6 6 5 4 3 4 4 3 3 3 2 3 3 2 4 3 3 3 3 2 4 4 4 4 3 4 5 3 3 3 2 2 8 11 12 13
3 2 2 2 6 8 10 11 8 7 4 2 5 7 8 5 7 4 3 4 4 4 5 5 6 6 5 5 4 4 3 3 3 4 4 5 5 6 6 6 7 7 6 6 5 5 3 2 2 1 1 3 5 4 4 3 3 2 4 3 3 3 4 3 3 3 3 2 2 1 1 3 5 7
1 2 3 5 7 8 9 10 9 7 4 5 9 9 13 10 5 6 6 6 4 4 4 5 4 4 4 4 5 5 5 3 2 3 3 4 4 4 4 5 6 5 5 5 5 6 6 6 7 6 6 4 6 5 4 3 2 3 3 2 2 2 2 3 3 2 2 3 3 3 3 3 3 4
3 1 4 7 9 9 8 4 1 1 1 2 4 9 6 4 5 5 5 5 5 5 5 5 4 4 3 3 3 3 5 6 6 3 2 5 5 5 5 6 6 5 5 5 6 6 6 6 5 5 6 6 6 6 4 4 5 4 3 3 3 2 4 4 4 3 2 1 2 2 0 2 4 4
3 4 4 4 5 5 7 8 7 4 4 4 4 3 3 3 4 4 5 5 5 5 4 3 3 3 4 4 5 5 5 6 6 5 4 3 4 5 5 5 5 5 4 4 4 5 5 5 5 4 3 3 4 3 3 4 3 3 4 5 5 4 0 2 3 3 4 3 1 1 3 1 2 4
3 3 4 5 4 4 4 4 4 1 3 4 3 3 2 2 4 6 7 5 3 2 3 3 2 3 2 3 4 4 3 2 4 4 4 3 4 2 2 1 2 3 3 3 3 3 5 5 5 6 6 5 3 2 4 3 3 2 1 1 3 3 3 3 2 1 2 3 2 1 1 2 3 4
3 4 5 5 5 5 6 6 6 5 3 4 4 4 4 5 5 3 2 3 2 2 2 4 4 3 4 5 2 2 3 1 2 3 5 5 3 2 3 4 3 3 3 1 1 4 3 3 4 4 3 4 4 3 3 5 7 6 5 6 5 4 4 1 1 1 1 2 4 2 3 4 3 4
2 5 4 5 4 1 3 3 3 2 2 4 4 4 5 4 4 5 4 1 2 2 3 2 3 3 3 2 3 3 3 2 2 3 1 3 4 5 5 5 5 4 3 4 2 2 1 2 3 5 4 4 5 5 4 4 6 6 6 5 6 5 5 5 5 5 3 4 4 2 1 4 6 4
4 4 4 3 2 2 4 3 2 2 4 3 3 5 5 3 3 2 3 5 3 2 2 2 2 1 2 3 2 4 3 4 3 3 5 2 3 6 3 2 3 4 6 5 6 5 2 2 2 2 2 2 3 4 5 4 4 6 4 4 4 5 6 5 6 7 7 6 2 3 6 4 3 3
4 6 2 4 4 2 2 2 1 2 3 3 3 3 4 3 2 2 2 4 2 4 3 2 2 2 2 2 2 3 3 3 3 3 3 5 4 1 1 2 3 6 5 6 7 6 6 5 4 1 3 1 1 2 3 5 6 3 3 2 3 3 4 4 5 4 6 6 7 5 5 7 6 7
6 3 3 3 3 2 2 2 2 2 3 3 3 3 3 3 1 2 2 3 1 2 4 4 5 1 3 3 2 3 4 4 5 5 6 6 6 6 4 5 4 4 6 5 6 6 6 5 6 6 6 3 1 1 2 2 6 6 3 2 3 3 3 4 6 7 5 5 7 6 5 5 6 6
5 3 2 4 2 2 1 2 2 2 3 1 2 3 4 4 2 0 2 3 4 3 3 3 2 4 3 3 3 3 4 5 6 5 5 5 5 5 5 4 5 5 4 5 6 6 5 5 4 5 5 5 4 4 3 1 0 4 5 2 4 3 3 4 5 5 5 5 5 6 4 6 5 3
6 4 4 3 2 2 2 3 2 3 3 2 2 1 3 4 4 4 3 2 3 2 2 2 2 2 4 4 3 3 3 3 5 5 4 3 4 4 5 5 5 4 5 5 6 5 4 3 4 3 3 3 3 3 3 1 1 1 3 2 2 2 2 3 3 3 2 4 5 5 3 3 6 10
4 1 2 4 3 1 3 2 2 2 2 4 4 5 5 4 4 3 3 1 2 2 2 1 2 1 1 3 3 4 4 5 3 3 4 3 4 3 4 3 5 3 5 4 5 4 3 3 2 2 2 2 4 5 7 3 3 1 0 2 1 4 3 2 1 0 1 1 2 4 3 3 5 3
2 2 1 1 2 1 2 1 2 2 5 4 2 2 2 2 3 3 2 1 3 3 2 1 2 1 2 1 3 4 4 3 4 4 2 4 4 4 5 4 3 3 4 4 3 3 1 2 4 5 4 3 5 3 3 4 1 1 5 4 3 3 1 5 3 2 2 1 0 0 1 2 3 2
3 2 3 1 2 2 2 3 3 4 4 5 4 2 2 2 2 5 2 1 2 4 2 1 2 2 1 3 2 4 3 2 3 3 3 4 2 4 5 3 3 3 3 4 2 1 1 2 3 4 4 3 5 4 4 3 2 4 1 2 3 3 7 9 5 2 0 2 2 0 1 0 1 1
3 2 3 4 2 1 1 2 1 1 3 2 4 4 4 4 4 4 4 4 3 1 4 2 2 2 2 2 3 3 3 3 1 2 3 2 3 2 3 2 3 4 4 2 2 3 1 2 3 3 3 2 1 0 1 2 2 3 4 3 3 3 5 8 1 2 8 6 2 2 2 3 1 2
3 3 3 3 3 1 1 1 2 2 1 4 2 1 4 2 4 4 2 2 1 2 1 3 1 0 1 2 3 3 4 1 1 1 2 3 3 3 3 2 1 3 3 2 1 2 3 1 3 1 3 1 1 2 2 3 5 3 2 2 2 4 2 1 4 5 7 8 3 7 9 9 10 8
4 4 3 5 3 3 2 3 2 0 2 2 3 3 4 4 3 4 3 2 2 2 2 0 4 2 1 3 2 3 2 4 2 2 1 2 3 4 3 3 5 2 3 1 0 0 1 1 3 2 2 1 2 1 3 4 5 1 3 2 4 3 2 3 2 1 3 2 8 12 12 13 14 13
Wind_Direction
359 5 22 4 335 2 19 352 338 329 322 312 303 306 295 335 340 335 326 335 330 340 349 3 340 82 130 267 247 195 119 254 270 243 329 68 45 89 85 93 78 63 59 27 14 1 3 23 359 322 277 261 253 247 243 240 237 236 238 238 238 236 233 230 218 178 174 157 130 120 80 352 265 223
9 13 16 357 348 12 1 342 338 334 321 309 308 310 356 37 353 320 320 318 326 347 354 348 337 355 49 138 243 297 234 237 256 283 245 110 121 119 198 295 69 270 237 256 284 54 62 36 36 22 0 333 289 267 256 246 241 236 233 231 232 231 228 201 137 132 125 135 132 120 138 188 208 208
12 13 10 9 10 11 349 335 337 315 333 356 1 0 359 359 357 358 347 324 351 343 334 340 348 358 337 4 167 176 286 201 235 275 251 284 113 132 200 285 299 295 285 268 278 112 109 98 90 56 24 3 300 278 252 249 243 239 236 232 232 234 199 146 135 134 135 124 122 132 163 187 186 190
21 19 15 13 11 2 344 340 336 344 0 10 7 355 359 358 14 13 358 346 330 341 333 321 326 292 274 355 326 73 292 335 262 292 338 153 144 222 179 230 250 260 266 284 102 82 62 41 42 172 192 211 177 193 242 247 244 243 244 239 240 219 104 75 68 68 84 130 137 161 185 201 204 176
20 25 14 17 7 351 350 352 352 4 0 2 356 349 352 353 1 13 359 351 338 332 336 336 342 342 1 12 318 75 230 289 336 336 338 305 265 253 265 96 83 80 70 76 45 21 4 341 274 261 224 212 197 190 197 202 206 196 208 67 64 73 86 96 112 141 157 149 182 179 177 182 202 204
21 15 13 25 8 4 2 1 11 10 4 1 357 352 359 5 353 5 2 346 337 330 335 330 324 330 12 337 338 23 359 57 276 291 308 285 251 232 201 94 60 93 113 110 90 290 276 315 319 302 279 222 200 198 198 206 198 183 101 104 112 116 124 146 160 169 174 167 179 175 172 176 186 201
21 24 23 23 15 19 7 10 15 10 9 7 6 2 6 352 346 345 351 348 335 333 325 330 335 2 356 354 346 345 353 354 325 317 333 334 355 359 3 62 82 78 84 76 78 41 25 25 19 18 25 17 18 15 12 27 66 100 114 120 127 135 147 157 154 158 158 164 163 157 162 175 184 193
17 32 29 27 24 14 11 11 23 12 9 14 3 354 353 345 348 343 343 357 340 335 328 338 349 357 349 337 12 353 2 355 348 356 350 348 22 40 33 54 76 59 59 66 67 62 46 42 44 43 39 36 37 30 34 70 104 113 123 134 145 153 153 154 153 155 159 150 150 161 169 174 180 182
32 41 36 33 27 18 12 19 19 12 6 7 357 347 346 350 354 337 356 343 353 335 338 339 356 360 350 305 16 4 352 347 327 37 11 15 55 50 28 46 58 52 44 60 76 60 60 60 61 60 58 54 50 47 43 39 52 103 131 145 153 154 157 157 160 158 159 159 164 171 175 172 169 169
36 33 52 40 31 21 17 14 17 13 3 346 353 352 342 356 360 356 353 351 10 12 347 325 342 358 4 347 11 358 350 1 354 16 28 46 33 45 59 52 57 41 22 331 62 84 71 65 63 59 54 51 51 49 48 51 57 52 38 25 350 281 165 156 154 160 168 168 169 141 101 90 85 94
29 42 50 41 29 26 14 1 5 358 7 353 3 355 348 354 0 2 0 350 5 9 4 343 22 22 357 3 359 0 346 333 8 2 34 27 296 38 56 71 51 68 78 83 66 66 71 78 75 64 53 45 40 46 44 44 54 57 49 46 41 29 23 33 64 90 62 58 69 83 93 99 102 87
21 32 63 46 36 28 8 3 3 20 19 11 7 357 4 12 14 13 11 14 11 12 21 22 27 17 0 9 9 3 11 16 17 24 48 15 36 59 48 30 52 69 21 49 52 44 56 79 67 56 50 42 37 28 36 41 40 46 51 52 50 43 36 37 44 45 50 58 63 73 82 84 75 73
30 27 33 28 45 30 22 22 32 28 37 22 18 12 16 18 16 15 17 14 20 27 30 29 18 11 16 20 14 14 27 27 357 2 22 61 57 40 56 37 31 32 68 78 72 58 34 53 47 46 43 40 37 36 36 41 44 49 54 58 58 55 52 50 47 47 49 55 64 69 73 82 82 78
22 37 23 15 29 35 27 17 17 25 25 38 41 33 25 26 20 16 18 21 22 32 35 28 20 21 21 20 16 14 27 353 1 25 19 38 46 65 75 69 49 3 54 74 64 51 47 58 60 50 49 37 41 36 40 49 54 52 56 57 59 59 61 62 62 61 62 65 66 68 70 69 66 62
19 11 10 354 28 31 29 20 9 12 24 26 37 37 39 39 35 20 20 31 31 35 36 25 22 22 18 16 11 10 5 10 23 27 0 38 44 56 56 73 65 16 44 77 70 55 45 49 66 59 53 44 47 50 46 50 54 58 57 56 54 58 62 64 66 67 69 69 70 71 70 70 69 67
15 360 2 29 25 23 30 16 358 359 7 22 36 45 46 40 36 34 44 40 45 41 39 36 24 18 15 7 7 3 5 1 19 15 32 32 47 59 64 65 68 3 29 84 77 65 49 50 66 67 58 60 61 62 63 57 61 61 61 60 61 64 67 72 73 73 75 75 75 74 71 70 71 70
15 6 9 11 30 27 26 11 353 350 351 354 18 49 50 43 37 29 35 52 58 61 52 45 40 27 12 17 7 2 17 346 37 13 38 35 54 56 62 54 74 42 8 82 78 74 59 59 68 73 61 63 59 53 62 74 75 72 67 64 63 65 67 70 74 77 80 82 80 77 75 72 70 68
15 8 7 14 27 32 28 2 348 342 339 347 327 55 63 55 39 31 31 40 49 51 64 60 53 36 33 34 15 2 1 19 20 34 36 19 63 63 64 54 63 34 15 83 98 83 63 57 68 71 73 68 66 62 37 54 75 80 76 74 69 65 65 66 70 73 75 76 77 77 78 78 76 75
26 17 17 23 33 31 11 0 344 335 328 319 16 72 88 75 54 34 19 16 8 25 35 66 65 51 45 46 31 16 8 8 22 41 57 39 42 88 104 81 65 49 355 47 84 85 75 77 78 81 80 70 68 66 53 40 58 69 74 78 79 75 68 68 68 69 69 70 71 77 79 81 81 80
39 30 26 29 37 25 8 354 347 345 350 38 57 54 58 88 75 41 341 295 330 353 7 36 77 73 53 57 45 29 19 11 21 88 102 61 41 74 79 65 57 58 20 28 77 98 83 54 79 99 123 119 86 69 63 37 40 65 81 87 86 85 85 80 75 71 75 71 75 86 88 85 83 80
53 43 35 36 22 19 6 357 2 3 41 33 47 53 52 52 51 76 347 273 287 283 270 259 290 184 230 46 49 36 27 27 14 27 46 34 15 69 89 88 75 66 43 14 12 88 99 99 92 85 55 65 91 91 70 60 40 51 63 85 88 85 83 86 88 88 89 89 92 98 106 108 107 99
76 50 51 41 19 13 359 2 19 10 39 49 50 48 46 48 50 35 15 14 349 241 249 257 213 218 225 53 49 44 40 34 27 32 38 18 24 56 59 84 88 94 67 10 337 69 94 117 113 105 132 106 83 115 119 120 106 76 58 58 79 93 93 96 96 106 115 124 138 145 143 138 310 68
76 69 48 40 25 9 1 13 24 19 27 59 51 52 51 38 39 33 17 357 11 24 60 58 63 71 57 47 44 43 44 43 41 38 36 18 27 53 66 71 80 71 44 27 347 76 34 61 12 11 110 60 10 91 151 162 171 133 117 81 68 86 110 110 111 106 106 125 241 269 232 253 240 153
61 60 63 39 20 1 4 10 17 23 16 47 38 34 38 13 12 335 13 25 22 25 57 64 56 56 53 47 44 46 41 41 42 39 35 34 30 37 50 61 64 64 43 13 11 86 82 329 120 251 118 118 73 9 39 104 150 156 137 120 116 180 105 101 99 120 124 121 123 229 221 199 196 154
73 67 62 57 19 357 355 3 10 16 20 31 43 27 22 352 299 299 42 31 35 34 39 47 60 59 49 47 46 44 48 46 42 39 37 36 37 41 41 49 53 59 48 14 41 72 100 250 92 64 66 80 102 82 61 73 51 78 135 162 169 192 219 190 135 119 109 107 87 46 59 72 93 115
79 77 79 72 17 351 348 348 354 4 9 26 34 0 332 320 338 49 59 59 50 50 43 39 42 46 47 44 44 45 46 51 51 45 38 35 36 37 46 51 54 53 38 18 37 68 80 48 60 99 94 87 101 127 102 64 76 75 45 37 41 51 70 90 116 107 91 74 48 36 69 71 67 66
115 126 92 61 16 345 332 331 331 342 6 20 3 333 344 2 346 35 46 66 73 68 59 50 47 36 36 41 43 46 46 49 61 64 61 54 43 35 32 34 37 47 31 27 28 48 59 88 36 61 82 82 96 83 76 92 77 63 54 47 57 53 46 46 41 62 108 105 102 72 74 74 76 73
113 144 122 35 343 330 319 316 310 325 35 3 334 330 305 1 21 9 20 57 74 81 72 64 60 52 34 31 25 34 53 75 76 83 83 76 66 56 41 33 31 25 27 30 30 30 42 72 86 128 90 66 70 79 95 73 94 101 94 63 71 82 72 61 53 51 55 93 150 204 87 77 63 65
56 18 341 322 306 297 298 292 298 303 10 28 76 52 52 39 15 21 19 20 31 47 67 77 74 72 64 55 39 23 17 26 82 98 96 93 84 78 69 53 44 30 26 22 26 29 43 57 53 40 47 60 76 66 71 56 79 84 93 100 68 45 71 74 77 75 87 91 77 48 65 104 123 133
148 226 267 285 287 286 272 262 211 188 193 322 81 90 82 68 44 28 19 10 23 37 36 48 64 71 55 39 43 37 27 20 20 34 84 85 74 71 59 53 42 38 28 21 18 22 27 33 48 63 65 59 74 77 58 69 47 45 66 112 141 90 55 59 32 13 14 88 123 128 177 146 132 110
229 246 250 254 255 278 310 306 294 294 180 221 247 124 131 111 93 74 39 11 22 23 35 42 49 83 94 82 53 36 33 26 3 4 26 77 108 91 84 86 69 53 41 33 24 19 30 29 27 27 44 58 70 73 108 100 100 96 84 72 60 67 54 71 59 17 355 349 288 177 190 263 157 147
233 242 258 276 278 269 263 272 267 141 67 43 14 26 56 105 128 107 80 52 16 17 15 13 18 29 52 99 100 82 69 53 9 360 24 16 52 85 122 62 89 108 77 43 35 23 30 34 32 29 38 19 32 58 83 72 83 75 56 83 113 122 112 105 84 0 327 323 326 276 273 210 189 169
231 230 239 241 261 241 214 199 192 162 142 117 94 61 43 21 23 28 104 101 51 18 37 45 25 40 34 25 55 116 114 67 42 348 28 22 49 27 48 66 52 54 68 104 54 10 43 41 55 75 53 39 37 28 38 58 26 14 25 33 24 24 351 29 137 222 289 330 306 313 205 272 238 202
304 276 272 251 226 223 68 58 35 24 128 133 117 95 87 63 36 8 357 13 125 87 62 44 65 44 32 57 53 34 41 14 30 13 62 64 44 48 48 49 26 23 51 37 63 154 36 74 67 46 38 55 54 51 36 54 63 47 58 41 28 19 7 2 352 340 306 281 297 305 263 240 246 227
282 262 269 254 34 26 49 37 74 66 24 26 104 107 85 72 60 23 354 343 3 36 112 87 58 86 91 57 43 66 57 51 18 39 19 41 90 78 47 65 63 51 33 25 26 27 79 47 40 53 0 29 26 10 45 24 72 51 56 60 63 38 358 351 347 337 329 317 294 349 323 328 309 269
299 271 224 55 25 33 104 155 61 50 78 51 44 73 94 82 57 40 343 318 12 3 23 29 82 60 32 82 66 68 58 73 44 33 28 8 12 91 129 82 104 62 63 54 38 32 36 33 6 355 217 125 71 56 350 26 64 44 57 58 50 51 357 345 338 346 354 21 21 2 6 341 342 14
266 240 107 185 163 128 79 12 97 105 62 88 94 79 91 93 52 320 344 350 55 44 4 27 0 348 88 39 41 63 71 59 49 42 30 10 10 12 35 48 43 82 72 60 72 48 35 28 10 21 18 56 46 106 211 311 19 49 52 76 62 46 7 2 7 8 357 27 9 1 344 337 10 14
289 277 92 52 41 32 46 113 118 130 148 157 153 155 138 128 145 75 38 22 347 64 18 19 3 347 349 116 80 58 76 76 66 51 48 20 12 15 16 36 50 43 76 79 66 56 44 30 32 21 32 30 19 3 30 95 284 25 34 35 83 32 22 38 22 8 354 6 6 332 345 28 57 70
260 252 134 161 153 138 95 342 49 59 5 24 38 52 145 153 158 126 100 57 330 3 60 339 348 350 355 358 80 57 67 89 100 84 71 50 20 15 20 25 27 45 50 68 68 49 26 28 26 20 32 26 1 299 295 48 85 219 13 3 111 99 46 58 23 337 7 5 339 331 6 102 131 130
248 336 140 122 146 184 115 200 215 154 105 56 41 10 11 35 50 66 78 35 328 315 97 353 301 323 15 349 26 81 44 41 34 107 108 76 64 25 7 51 29 17 69 39 71 59 31 346 314 336 283 294 281 280 280 254 110 67 301 298 118 134 154 154 185 235 340 338 338 2 354 14 9 327
148 225 249 40 131 127 167 119 152 120 98 98 88 61 27 355 64 71 65 74 303 299 110 2 334 359 354 44 69 54 68 66 43 21 66 118 90 48 15 3 79 27 67 63 54 94 51 284 281 260 240 264 282 314 12 36 77 226 187 237 281 281 250 171 184 187 189 153 329 7 352 17 344 323
172 222 126 177 172 180 179 200 206 159 158 151 151 154 193 207 165 149 163 183 277 294 4 41 345 2 39 360 51 104 75 64 100 76 23 31 89 93 37 14 45 38 52 81 52 3 155 348 338 60 64 51 13 42 30 351 343 288 232 150 253 228 264 267 237 102 51 225 183 183 327 343 318 295
174 192 166 200 112 146 280 140 334 351 138 178 130 166 188 204 172 167 203 196 221 223 116 121 320 16 337 77 27 15 97 107 30 96 89 41 29 61 91 43 57 55 18 47 87 353 22 53 336 82 65 68 327 292 71 303 273 276 300 115 192 216 230 257 356 331 267 252 312 340 184 198 184 297
182 208 185 121 137 128 27 22 177 285 129 122 131 257 271 197 148 193 167 125 198 91 239 114 195 172 325 94 94 41 1 15 162 116 125 122 89 49 45 26 47 107 73 6 44 44 317 67 321 76 95 21 289 10 11 322 312 328 35 44 18 17 26 161 165 257 298 301 270 244 253 231 207 229
183 229 160 146 153 148 213 212 201 124 228 154 142 216 251 269 179 155 147 180 130 156 250 195 158 153 79 355 99 160 193 239 262 142 163 92 138 126 82 38 0 347 141 164 329 159 272 108 327 63 92 4 341 75 354 338 316 343 76 42 13 337 26 4 23 2 303 297 220 220 232 236 247 254